Year,Month,Day,Hour,Minute,Value (Times are PST for temperature in C)
2018,06,20,00,00,16.80
2018,06,20,00,01,16.80
2018,06,20,00,02,16.80
2018,06,20,00,03,16.80
2018,06,20,00,04,16.80
2018,06,20,00,05,16.80
2018,06,20,00,06,16.80
2018,06,20,00,07,16.80
2018,06,20,00,08,16.70
2018,06,20,00,09,16.70
2018,06,20,00,10,16.70
2018,06,20,00,11,16.70
2018,06,20,00,12,16.70
2018,06,20,00,13,16.70
2018,06,20,00,14,16.70
2018,06,20,00,15,16.60
2018,06,20,00,16,16.60
2018,06,20,00,17,16.60
2018,06,20,00,18,16.60
2018,06,20,00,19,16.60
2018,06,20,00,20,16.50
2018,06,20,00,21,16.50
2018,06,20,00,22,16.50
2018,06,20,00,23,16.50
2018,06,20,00,24,16.40
2018,06,20,00,25,16.40
2018,06,20,00,26,16.40
2018,06,20,00,27,16.40
2018,06,20,00,28,16.40
2018,06,20,00,29,16.40
2018,06,20,00,30,16.40
2018,06,20,00,31,16.30
2018,06,20,00,32,16.30
2018,06,20,00,33,16.30
2018,06,20,00,34,16.30
2018,06,20,00,35,16.30
2018,06,20,00,36,16.30
2018,06,20,00,37,16.30
2018,06,20,00,38,16.30
2018,06,20,00,39,16.30
2018,06,20,00,40,16.30
2018,06,20,00,41,16.20
2018,06,20,00,42,16.20
2018,06,20,00,43,16.20
2018,06,20,00,44,16.20
2018,06,20,00,45,16.20
2018,06,20,00,46,16.20
2018,06,20,00,47,16.20
2018,06,20,00,48,16.20
2018,06,20,00,49,16.20
2018,06,20,00,50,16.20
2018,06,20,00,51,16.20
2018,06,20,00,52,16.20
2018,06,20,00,53,16.20
2018,06,20,00,54,16.10
2018,06,20,00,55,16.10
2018,06,20,00,56,16.10
2018,06,20,00,57,16.20
2018,06,20,00,58,16.20
2018,06,20,00,59,16.20
2018,06,20,01,00,16.20
2018,06,20,01,01,16.20
2018,06,20,01,02,16.20
2018,06,20,01,03,16.20
2018,06,20,01,04,16.20
2018,06,20,01,05,16.20
2018,06,20,01,06,16.20
2018,06,20,01,07,16.20
2018,06,20,01,08,16.20
2018,06,20,01,09,16.20
2018,06,20,01,10,16.20
2018,06,20,01,11,16.20
2018,06,20,01,12,16.20
2018,06,20,01,13,16.20
2018,06,20,01,14,16.10
2018,06,20,01,15,16.10
2018,06,20,01,16,16.10
2018,06,20,01,17,16.10
2018,06,20,01,18,16.10
2018,06,20,01,19,16.10
2018,06,20,01,20,16.10
2018,06,20,01,21,16.10
2018,06,20,01,22,16.10
2018,06,20,01,23,16.10
2018,06,20,01,24,16.10
2018,06,20,01,25,16.10
2018,06,20,01,26,16.10
2018,06,20,01,27,16.10
2018,06,20,01,28,16.10
2018,06,20,01,29,16.10
2018,06,20,01,30,16.10
2018,06,20,01,31,16.10
2018,06,20,01,32,16.10
2018,06,20,01,33,16.10
2018,06,20,01,34,16.00
2018,06,20,01,35,16.00
2018,06,20,01,36,16.10
2018,06,20,01,37,16.00
2018,06,20,01,38,16.00
2018,06,20,01,39,16.00
2018,06,20,01,40,16.10
2018,06,20,01,41,16.10
2018,06,20,01,42,16.10
2018,06,20,01,43,16.10
2018,06,20,01,44,16.10
2018,06,20,01,45,16.10
2018,06,20,01,46,16.10
2018,06,20,01,47,16.10
2018,06,20,01,48,16.10
2018,06,20,01,49,16.20
2018,06,20,01,50,16.20
2018,06,20,01,51,16.20
2018,06,20,01,52,16.20
2018,06,20,01,53,16.20
2018,06,20,01,54,16.20
2018,06,20,01,55,16.20
2018,06,20,01,56,16.20
2018,06,20,01,57,16.20
2018,06,20,01,58,16.20
2018,06,20,01,59,16.30
2018,06,20,02,00,16.30
2018,06,20,02,01,16.30
2018,06,20,02,02,16.30
2018,06,20,02,03,16.30
2018,06,20,02,04,16.30
2018,06,20,02,05,16.30
2018,06,20,02,06,16.30
2018,06,20,02,07,16.30
2018,06,20,02,08,16.30
2018,06,20,02,09,16.30
2018,06,20,02,10,16.40
2018,06,20,02,11,16.40
2018,06,20,02,12,16.40
2018,06,20,02,13,16.50
2018,06,20,02,14,16.50
2018,06,20,02,15,16.50
2018,06,20,02,16,16.50
2018,06,20,02,17,16.50
2018,06,20,02,18,16.60
2018,06,20,02,19,16.60
2018,06,20,02,20,16.60
2018,06,20,02,21,16.60
2018,06,20,02,22,16.60
2018,06,20,02,23,16.60
2018,06,20,02,24,16.60
2018,06,20,02,25,16.60
2018,06,20,02,26,16.60
2018,06,20,02,27,16.60
2018,06,20,02,28,16.60
2018,06,20,02,29,16.60
2018,06,20,02,30,16.60
2018,06,20,02,31,16.60
2018,06,20,02,32,16.60
2018,06,20,02,33,16.60
2018,06,20,02,34,16.60
2018,06,20,02,35,16.70
2018,06,20,02,36,16.70
2018,06,20,02,37,16.70
2018,06,20,02,38,16.70
2018,06,20,02,39,16.70
2018,06,20,02,40,16.70
2018,06,20,02,41,16.70
2018,06,20,02,42,16.70
2018,06,20,02,43,16.70
2018,06,20,02,44,16.70
2018,06,20,02,45,16.70
2018,06,20,02,46,16.70
2018,06,20,02,47,16.70
2018,06,20,02,48,16.60
2018,06,20,02,49,16.60
2018,06,20,02,50,16.60
2018,06,20,02,51,16.60
2018,06,20,02,52,16.60
2018,06,20,02,53,16.60
2018,06,20,02,54,16.60
2018,06,20,02,55,16.60
2018,06,20,02,56,16.60
2018,06,20,02,57,16.60
2018,06,20,02,58,16.60
2018,06,20,02,59,16.60
2018,06,20,03,00,16.60
2018,06,20,03,01,16.60
2018,06,20,03,02,16.60
2018,06,20,03,03,16.60
2018,06,20,03,04,16.60
2018,06,20,03,05,16.60
2018,06,20,03,06,16.60
2018,06,20,03,07,16.60
2018,06,20,03,08,16.60
2018,06,20,03,09,16.70
2018,06,20,03,10,16.70
2018,06,20,03,11,16.70
2018,06,20,03,12,16.70
2018,06,20,03,13,16.70
2018,06,20,03,14,16.70
2018,06,20,03,15,16.70
2018,06,20,03,16,16.70
2018,06,20,03,17,16.70
2018,06,20,03,18,16.70
2018,06,20,03,19,16.70
2018,06,20,03,20,16.70
2018,06,20,03,21,16.70
2018,06,20,03,22,16.70
2018,06,20,03,23,16.70
2018,06,20,03,24,16.70
2018,06,20,03,25,16.70
2018,06,20,03,26,16.70
2018,06,20,03,27,16.70
2018,06,20,03,28,16.70
2018,06,20,03,29,16.70
2018,06,20,03,30,16.70
2018,06,20,03,31,16.70
2018,06,20,03,32,16.70
2018,06,20,03,33,16.70
2018,06,20,03,34,16.70
2018,06,20,03,35,16.70
2018,06,20,03,36,16.70
2018,06,20,03,37,16.70
2018,06,20,03,38,16.70
2018,06,20,03,39,16.70
2018,06,20,03,40,16.70
2018,06,20,03,41,16.70
2018,06,20,03,42,16.70
2018,06,20,03,43,16.70
2018,06,20,03,44,16.70
2018,06,20,03,45,16.70
2018,06,20,03,46,16.60
2018,06,20,03,47,16.60
2018,06,20,03,48,16.70
2018,06,20,03,49,16.70
2018,06,20,03,50,16.70
2018,06,20,03,51,16.70
2018,06,20,03,52,16.70
2018,06,20,03,53,16.60
2018,06,20,03,54,16.60
2018,06,20,03,55,16.60
2018,06,20,03,56,16.60
2018,06,20,03,57,16.60
2018,06,20,03,58,16.60
2018,06,20,03,59,16.60
2018,06,20,04,00,16.60
2018,06,20,04,01,16.60
2018,06,20,04,02,16.60
2018,06,20,04,03,16.60
2018,06,20,04,04,16.60
2018,06,20,04,05,16.50
2018,06,20,04,06,16.50
2018,06,20,04,07,16.50
2018,06,20,04,08,16.50
2018,06,20,04,09,16.50
2018,06,20,04,10,16.40
2018,06,20,04,11,16.40
2018,06,20,04,12,16.40
2018,06,20,04,13,16.40
2018,06,20,04,14,16.40
2018,06,20,04,15,16.40
2018,06,20,04,16,16.30
2018,06,20,04,17,16.30
2018,06,20,04,18,16.30
2018,06,20,04,19,16.30
2018,06,20,04,20,16.30
2018,06,20,04,21,16.20
2018,06,20,04,22,16.20
2018,06,20,04,23,16.20
2018,06,20,04,24,16.20
2018,06,20,04,25,16.20
2018,06,20,04,26,16.20
2018,06,20,04,27,16.20
2018,06,20,04,28,16.10
2018,06,20,04,29,16.10
2018,06,20,04,30,16.10
2018,06,20,04,31,16.10
2018,06,20,04,32,16.00
2018,06,20,04,33,16.00
2018,06,20,04,34,16.00
2018,06,20,04,35,16.00
2018,06,20,04,36,16.00
2018,06,20,04,37,15.90
2018,06,20,04,38,15.90
2018,06,20,04,39,15.90
2018,06,20,04,40,15.90
2018,06,20,04,41,15.90
2018,06,20,04,42,15.90
2018,06,20,04,43,15.90
2018,06,20,04,44,15.80
2018,06,20,04,45,15.80
2018,06,20,04,46,15.80
2018,06,20,04,47,15.80
2018,06,20,04,48,15.80
2018,06,20,04,49,15.80
2018,06,20,04,50,15.80
2018,06,20,04,51,15.80
2018,06,20,04,52,15.70
2018,06,20,04,53,15.70
2018,06,20,04,54,15.70
2018,06,20,04,55,15.70
2018,06,20,04,56,15.60
2018,06,20,04,57,15.60
2018,06,20,04,58,15.60
2018,06,20,04,59,15.60
2018,06,20,05,00,15.60
2018,06,20,05,01,15.60
2018,06,20,05,02,15.50
2018,06,20,05,03,15.50
2018,06,20,05,04,15.50
2018,06,20,05,05,15.50
2018,06,20,05,06,15.50
2018,06,20,05,07,15.40
2018,06,20,05,08,15.40
2018,06,20,05,09,15.40
2018,06,20,05,10,15.40
2018,06,20,05,11,15.40
2018,06,20,05,12,15.40
2018,06,20,05,13,15.40
2018,06,20,05,14,15.40
2018,06,20,05,15,15.40
2018,06,20,05,16,15.40
2018,06,20,05,17,15.40
2018,06,20,05,18,15.40
2018,06,20,05,19,15.40
2018,06,20,05,20,15.40
2018,06,20,05,21,15.40
2018,06,20,05,22,15.40
2018,06,20,05,23,15.40
2018,06,20,05,24,15.40
2018,06,20,05,25,15.30
2018,06,20,05,26,15.30
2018,06,20,05,27,15.30
2018,06,20,05,28,15.30
2018,06,20,05,29,15.30
2018,06,20,05,30,15.30
2018,06,20,05,31,15.30
2018,06,20,05,32,15.30
2018,06,20,05,33,15.30
2018,06,20,05,34,15.30
2018,06,20,05,35,15.30
2018,06,20,05,36,15.30
2018,06,20,05,37,15.20
2018,06,20,05,38,15.20
2018,06,20,05,39,15.20
2018,06,20,05,40,15.20
2018,06,20,05,41,15.20
2018,06,20,05,42,15.20
2018,06,20,05,43,15.20
2018,06,20,05,44,15.20
2018,06,20,05,45,15.20
2018,06,20,05,46,15.20
2018,06,20,05,47,15.20
2018,06,20,05,48,15.20
2018,06,20,05,49,15.20
2018,06,20,05,50,15.20
2018,06,20,05,51,15.20
2018,06,20,05,52,15.10
2018,06,20,05,53,15.10
2018,06,20,05,54,15.10
2018,06,20,05,55,15.10
2018,06,20,05,56,15.10
2018,06,20,05,57,15.10
2018,06,20,05,58,15.10
2018,06,20,05,59,15.10
2018,06,20,06,00,15.00
2018,06,20,06,01,15.00
2018,06,20,06,02,15.00
2018,06,20,06,03,15.00
2018,06,20,06,04,15.00
2018,06,20,06,05,15.00
2018,06,20,06,06,15.00
2018,06,20,06,07,15.00
2018,06,20,06,08,15.00
2018,06,20,06,09,15.00
2018,06,20,06,10,14.90
2018,06,20,06,11,14.90
2018,06,20,06,12,14.90
2018,06,20,06,13,14.90
2018,06,20,06,14,14.90
2018,06,20,06,15,14.90
2018,06,20,06,16,14.90
2018,06,20,06,17,14.90
2018,06,20,06,18,14.90
2018,06,20,06,19,14.90
2018,06,20,06,20,14.90
2018,06,20,06,21,14.90
2018,06,20,06,22,14.90
2018,06,20,06,23,14.90
2018,06,20,06,24,14.90
2018,06,20,06,25,14.90
2018,06,20,06,26,14.90
2018,06,20,06,27,14.90
2018,06,20,06,28,14.90
2018,06,20,06,29,14.90
2018,06,20,06,30,14.90
2018,06,20,06,31,14.90
2018,06,20,06,32,14.90
2018,06,20,06,33,14.90
2018,06,20,06,34,14.90
2018,06,20,06,35,14.90
2018,06,20,06,36,14.90
2018,06,20,06,37,14.90
2018,06,20,06,38,15.00
2018,06,20,06,39,15.00
2018,06,20,06,40,15.00
2018,06,20,06,41,15.00
2018,06,20,06,42,15.10
2018,06,20,06,43,15.10
2018,06,20,06,44,15.10
2018,06,20,06,45,15.10
2018,06,20,06,46,15.10
2018,06,20,06,47,15.10
2018,06,20,06,48,15.10
2018,06,20,06,49,15.20
2018,06,20,06,50,15.20
2018,06,20,06,51,15.20
2018,06,20,06,52,15.20
2018,06,20,06,53,15.20
2018,06,20,06,54,15.30
2018,06,20,06,55,15.30
2018,06,20,06,56,15.30
2018,06,20,06,57,15.30
2018,06,20,06,58,15.40
2018,06,20,06,59,15.50
2018,06,20,07,00,15.50
2018,06,20,07,01,15.60
2018,06,20,07,02,15.70
2018,06,20,07,03,15.70
2018,06,20,07,04,15.80
2018,06,20,07,05,15.80
2018,06,20,07,06,15.90
2018,06,20,07,07,16.00
2018,06,20,07,08,16.00
2018,06,20,07,09,16.10
2018,06,20,07,10,16.20
2018,06,20,07,11,16.30
2018,06,20,07,12,16.30
2018,06,20,07,13,16.40
2018,06,20,07,14,16.50
2018,06,20,07,15,16.50
2018,06,20,07,16,16.60
2018,06,20,07,17,16.70
2018,06,20,07,18,16.80
2018,06,20,07,19,16.90
2018,06,20,07,20,16.90
2018,06,20,07,21,17.10
2018,06,20,07,22,17.10
2018,06,20,07,23,17.20
2018,06,20,07,24,17.30
2018,06,20,07,25,17.30
2018,06,20,07,26,17.30
2018,06,20,07,27,17.40
2018,06,20,07,28,17.40
2018,06,20,07,29,17.50
2018,06,20,07,30,17.50
2018,06,20,07,31,17.60
2018,06,20,07,32,17.70
2018,06,20,07,33,17.70
2018,06,20,07,34,17.70
2018,06,20,07,35,17.80
2018,06,20,07,36,17.80
2018,06,20,07,37,17.80
2018,06,20,07,38,17.90
2018,06,20,07,39,17.90
2018,06,20,07,40,17.90
2018,06,20,07,41,18.00
2018,06,20,07,42,18.00
2018,06,20,07,43,18.00
2018,06,20,07,44,18.10
2018,06,20,07,45,18.10
2018,06,20,07,46,18.10
2018,06,20,07,47,18.10
2018,06,20,07,48,18.10
2018,06,20,07,49,18.20
2018,06,20,07,50,18.20
2018,06,20,07,51,18.20
2018,06,20,07,52,18.20
2018,06,20,07,53,18.20
2018,06,20,07,54,18.20
2018,06,20,07,55,18.20
2018,06,20,07,56,18.20
2018,06,20,07,57,18.20
2018,06,20,07,58,18.20
2018,06,20,07,59,18.20
2018,06,20,08,00,18.20
2018,06,20,08,01,18.20
2018,06,20,08,02,18.20
2018,06,20,08,03,18.20
2018,06,20,08,04,18.20
2018,06,20,08,05,18.20
2018,06,20,08,06,18.20
2018,06,20,08,07,18.20
2018,06,20,08,08,18.10
2018,06,20,08,09,18.10
2018,06,20,08,10,18.10
2018,06,20,08,11,18.10
2018,06,20,08,12,18.10
2018,06,20,08,13,18.10
2018,06,20,08,14,18.10
2018,06,20,08,15,18.20
2018,06,20,08,16,18.20
2018,06,20,08,17,18.20
2018,06,20,08,18,18.20
2018,06,20,08,19,18.20
2018,06,20,08,20,18.20
2018,06,20,08,21,18.20
2018,06,20,08,22,18.20
2018,06,20,08,23,18.20
2018,06,20,08,24,18.20
2018,06,20,08,25,18.20
2018,06,20,08,26,18.20
2018,06,20,08,27,18.20
2018,06,20,08,28,18.20
2018,06,20,08,29,18.20
2018,06,20,08,30,18.20
2018,06,20,08,31,18.20
2018,06,20,08,32,18.20
2018,06,20,08,33,18.20
2018,06,20,08,34,18.30
2018,06,20,08,35,18.30
2018,06,20,08,36,18.30
2018,06,20,08,37,18.30
2018,06,20,08,38,18.30
2018,06,20,08,39,18.30
2018,06,20,08,40,18.30
2018,06,20,08,41,18.30
2018,06,20,08,42,18.30
2018,06,20,08,43,18.30
2018,06,20,08,44,18.30
2018,06,20,08,45,18.30
2018,06,20,08,46,18.40
2018,06,20,08,47,18.40
2018,06,20,08,48,18.40
2018,06,20,08,49,18.40
2018,06,20,08,50,18.50
2018,06,20,08,51,18.50
2018,06,20,08,52,18.60
2018,06,20,08,53,18.60
2018,06,20,08,54,18.60
2018,06,20,08,55,18.70
2018,06,20,08,56,18.70
2018,06,20,08,57,18.70
2018,06,20,08,58,18.70
2018,06,20,08,59,18.70
2018,06,20,09,00,18.70
2018,06,20,09,01,18.70
2018,06,20,09,02,18.80
2018,06,20,09,03,18.80
2018,06,20,09,04,18.80
2018,06,20,09,05,18.80
2018,06,20,09,06,18.80
2018,06,20,09,07,18.90
2018,06,20,09,08,18.90
2018,06,20,09,09,18.90
2018,06,20,09,10,18.90
2018,06,20,09,11,19.00
2018,06,20,09,12,19.00
2018,06,20,09,13,19.00
2018,06,20,09,14,19.00
2018,06,20,09,15,19.00
2018,06,20,09,16,19.10
2018,06,20,09,17,19.10
2018,06,20,09,18,19.10
2018,06,20,09,19,19.20
2018,06,20,09,20,19.20
2018,06,20,09,21,19.20
2018,06,20,09,22,19.20
2018,06,20,09,23,19.20
2018,06,20,09,24,19.20
2018,06,20,09,25,19.20
2018,06,20,09,26,19.20
2018,06,20,09,27,19.20
2018,06,20,09,28,19.30
2018,06,20,09,29,19.30
2018,06,20,09,30,19.30
2018,06,20,09,31,19.30
2018,06,20,09,32,19.30
2018,06,20,09,33,19.40
2018,06,20,09,34,19.40
2018,06,20,09,35,19.40
2018,06,20,09,36,19.50
2018,06,20,09,37,19.50
2018,06,20,09,38,19.60
2018,06,20,09,39,19.60
2018,06,20,09,40,19.60
2018,06,20,09,41,19.60
2018,06,20,09,42,19.60
2018,06,20,09,43,19.60
2018,06,20,09,44,19.60
2018,06,20,09,45,19.60
2018,06,20,09,46,19.60
2018,06,20,09,47,19.60
2018,06,20,09,48,19.60
2018,06,20,09,49,19.60
2018,06,20,09,50,19.60
2018,06,20,09,51,19.60
2018,06,20,09,52,19.60
2018,06,20,09,53,19.60
2018,06,20,09,54,19.60
2018,06,20,09,55,19.70
2018,06,20,09,56,19.70
2018,06,20,09,57,19.70
2018,06,20,09,58,19.80
2018,06,20,09,59,19.80
2018,06,20,10,00,19.80
2018,06,20,10,01,19.80
2018,06,20,10,02,19.90
2018,06,20,10,03,19.90
2018,06,20,10,04,20.00
2018,06,20,10,05,20.00
2018,06,20,10,06,20.10
2018,06,20,10,07,20.20
2018,06,20,10,08,20.30
2018,06,20,10,09,20.30
2018,06,20,10,10,20.30
2018,06,20,10,11,20.40
2018,06,20,10,12,20.40
2018,06,20,10,13,20.40
2018,06,20,10,14,20.50
2018,06,20,10,15,20.50
2018,06,20,10,16,20.60
2018,06,20,10,17,20.60
2018,06,20,10,18,20.60
2018,06,20,10,19,20.60
2018,06,20,10,20,20.70
2018,06,20,10,21,20.70
2018,06,20,10,22,20.70
2018,06,20,10,23,20.70
2018,06,20,10,24,20.80
2018,06,20,10,25,20.70
2018,06,20,10,26,20.70
2018,06,20,10,27,20.70
2018,06,20,10,28,20.80
2018,06,20,10,29,20.80
2018,06,20,10,30,20.80
2018,06,20,10,31,20.90
2018,06,20,10,32,21.00
2018,06,20,10,33,21.00
2018,06,20,10,34,21.10
2018,06,20,10,35,21.20
2018,06,20,10,36,21.30
2018,06,20,10,37,21.30
2018,06,20,10,38,21.30
2018,06,20,10,39,21.30
2018,06,20,10,40,21.40
2018,06,20,10,41,21.40
2018,06,20,10,42,21.50
2018,06,20,10,43,21.60
2018,06,20,10,44,21.60
2018,06,20,10,45,21.70
2018,06,20,10,46,21.70
2018,06,20,10,47,21.80
2018,06,20,10,48,21.80
2018,06,20,10,49,21.80
2018,06,20,10,50,21.80
2018,06,20,10,51,21.90
2018,06,20,10,52,22.00
2018,06,20,10,53,22.00
2018,06,20,10,54,22.10
2018,06,20,10,55,22.20
2018,06,20,10,56,22.30
2018,06,20,10,57,22.40
2018,06,20,10,58,22.40
2018,06,20,10,59,22.30
2018,06,20,11,00,22.30
2018,06,20,11,01,22.30
2018,06,20,11,02,22.30
2018,06,20,11,03,22.30
2018,06,20,11,04,22.30
2018,06,20,11,05,22.30
2018,06,20,11,06,22.20
2018,06,20,11,07,22.20
2018,06,20,11,08,22.10
2018,06,20,11,09,22.10
2018,06,20,11,10,22.10
2018,06,20,11,11,22.10
2018,06,20,11,12,22.00
2018,06,20,11,13,22.00
2018,06,20,11,14,21.90
2018,06,20,11,15,21.90
2018,06,20,11,16,21.80
2018,06,20,11,17,21.80
2018,06,20,11,18,21.80
2018,06,20,11,19,21.80
2018,06,20,11,20,21.80
2018,06,20,11,21,21.80
2018,06,20,11,22,21.90
2018,06,20,11,23,21.90
2018,06,20,11,24,21.90
2018,06,20,11,25,22.00
2018,06,20,11,26,22.10
2018,06,20,11,27,22.10
2018,06,20,11,28,22.10
2018,06,20,11,29,22.10
2018,06,20,11,30,22.10
2018,06,20,11,31,22.10
2018,06,20,11,32,22.20
2018,06,20,11,33,22.30
2018,06,20,11,34,22.40
2018,06,20,11,35,22.50
2018,06,20,11,36,22.60
2018,06,20,11,37,22.70
2018,06,20,11,38,22.80
2018,06,20,11,39,23.00
2018,06,20,11,40,23.10
2018,06,20,11,41,23.30
2018,06,20,11,42,23.40
2018,06,20,11,43,23.50
2018,06,20,11,44,23.60
2018,06,20,11,45,23.70
2018,06,20,11,46,23.70
2018,06,20,11,47,23.70
2018,06,20,11,48,23.60
2018,06,20,11,49,23.60
2018,06,20,11,50,23.60
2018,06,20,11,51,23.50
2018,06,20,11,52,23.40
2018,06,20,11,53,23.40
2018,06,20,11,54,23.40
2018,06,20,11,55,23.40
2018,06,20,11,56,23.40
2018,06,20,11,57,23.30
2018,06,20,11,58,23.20
2018,06,20,11,59,23.10
2018,06,20,12,00,23.00
2018,06,20,12,01,22.90
2018,06,20,12,02,22.80
2018,06,20,12,03,22.80
2018,06,20,12,04,22.80
2018,06,20,12,05,22.70
2018,06,20,12,06,22.70
2018,06,20,12,07,22.70
2018,06,20,12,08,22.70
2018,06,20,12,09,22.70
2018,06,20,12,10,22.70
2018,06,20,12,11,22.70
2018,06,20,12,12,22.60
2018,06,20,12,13,22.60
2018,06,20,12,14,22.50
2018,06,20,12,15,22.40
2018,06,20,12,16,22.30
2018,06,20,12,17,22.20
2018,06,20,12,18,22.20
2018,06,20,12,19,22.20
2018,06,20,12,20,22.10
2018,06,20,12,21,22.00
2018,06,20,12,22,22.00
2018,06,20,12,23,21.90
2018,06,20,12,24,21.90
2018,06,20,12,25,21.90
2018,06,20,12,26,21.80
2018,06,20,12,27,21.80
2018,06,20,12,28,21.80
2018,06,20,12,29,21.80
2018,06,20,12,30,21.80
2018,06,20,12,31,21.80
2018,06,20,12,32,21.80
2018,06,20,12,33,21.80
2018,06,20,12,34,21.80
2018,06,20,12,35,21.80
2018,06,20,12,36,21.80
2018,06,20,12,37,21.80
2018,06,20,12,38,21.80
2018,06,20,12,39,21.80
2018,06,20,12,40,21.80
2018,06,20,12,41,21.80
2018,06,20,12,42,21.80
2018,06,20,12,43,21.80
2018,06,20,12,44,21.80
2018,06,20,12,45,21.80
2018,06,20,12,46,21.80
2018,06,20,12,47,21.80
2018,06,20,12,48,21.70
2018,06,20,12,49,21.70
2018,06,20,12,50,21.70
2018,06,20,12,51,21.70
2018,06,20,12,52,21.70
2018,06,20,12,53,21.70
2018,06,20,12,54,21.70
2018,06,20,12,55,21.70
2018,06,20,12,56,21.70
2018,06,20,12,57,21.70
2018,06,20,12,58,21.70
2018,06,20,12,59,21.70
2018,06,20,13,00,21.80
2018,06,20,13,01,21.80
2018,06,20,13,02,21.90
2018,06,20,13,03,21.90
2018,06,20,13,04,22.00
2018,06,20,13,05,22.10
2018,06,20,13,06,22.10
2018,06,20,13,07,22.20
2018,06,20,13,08,22.30
2018,06,20,13,09,22.30
2018,06,20,13,10,22.30
2018,06,20,13,11,22.20
2018,06,20,13,12,22.20
2018,06,20,13,13,22.20
2018,06,20,13,14,22.10
2018,06,20,13,15,22.10
2018,06,20,13,16,22.10
2018,06,20,13,17,22.20
2018,06,20,13,18,22.20
2018,06,20,13,19,22.30
2018,06,20,13,20,22.30
2018,06,20,13,21,22.40
2018,06,20,13,22,22.50
2018,06,20,13,23,22.60
2018,06,20,13,24,22.60
2018,06,20,13,25,22.70
2018,06,20,13,26,22.70
2018,06,20,13,27,22.70
2018,06,20,13,28,22.70
2018,06,20,13,29,22.70
2018,06,20,13,30,22.70
2018,06,20,13,31,22.70
2018,06,20,13,32,22.70
2018,06,20,13,33,22.70
2018,06,20,13,34,22.70
2018,06,20,13,35,22.70
2018,06,20,13,36,22.80
2018,06,20,13,37,22.80
2018,06,20,13,38,22.90
2018,06,20,13,39,23.00
2018,06,20,13,40,23.00
2018,06,20,13,41,23.10
2018,06,20,13,42,23.20
2018,06,20,13,43,23.30
2018,06,20,13,44,23.40
2018,06,20,13,45,23.50
2018,06,20,13,46,23.60
2018,06,20,13,47,23.80
2018,06,20,13,48,23.90
2018,06,20,13,49,24.00
2018,06,20,13,50,24.10
2018,06,20,13,51,24.30
2018,06,20,13,52,24.30
2018,06,20,13,53,24.50
2018,06,20,13,54,24.60
2018,06,20,13,55,24.70
2018,06,20,13,56,24.80
2018,06,20,13,57,25.00
2018,06,20,13,58,25.10
2018,06,20,13,59,25.20
2018,06,20,14,00,25.30
2018,06,20,14,01,25.40
2018,06,20,14,02,25.40
2018,06,20,14,03,25.40
2018,06,20,14,04,25.50
2018,06,20,14,05,25.50
2018,06,20,14,06,25.50
2018,06,20,14,07,25.50
2018,06,20,14,08,25.50
2018,06,20,14,09,25.40
2018,06,20,14,10,25.30
2018,06,20,14,11,25.30
2018,06,20,14,12,25.30
2018,06,20,14,13,25.30
2018,06,20,14,14,25.30
2018,06,20,14,15,25.30
2018,06,20,14,16,25.40
2018,06,20,14,17,25.40
2018,06,20,14,18,25.40
2018,06,20,14,19,25.50
2018,06,20,14,20,25.60
2018,06,20,14,21,25.60
2018,06,20,14,22,25.70
2018,06,20,14,23,25.80
2018,06,20,14,24,25.80
2018,06,20,14,25,25.80
2018,06,20,14,26,25.80
2018,06,20,14,27,25.90
2018,06,20,14,28,25.90
2018,06,20,14,29,26.00
2018,06,20,14,30,26.20
2018,06,20,14,31,26.30
2018,06,20,14,32,26.40
2018,06,20,14,33,26.60
2018,06,20,14,34,26.80
2018,06,20,14,35,27.00
2018,06,20,14,36,27.20
2018,06,20,14,37,27.30
2018,06,20,14,38,27.50
2018,06,20,14,39,27.60
2018,06,20,14,40,27.70
2018,06,20,14,41,27.80
2018,06,20,14,42,27.90
2018,06,20,14,43,28.00
2018,06,20,14,44,28.00
2018,06,20,14,45,28.10
2018,06,20,14,46,28.10
2018,06,20,14,47,28.10
2018,06,20,14,48,28.10
2018,06,20,14,49,28.10
2018,06,20,14,50,28.10
2018,06,20,14,51,28.00
2018,06,20,14,52,27.90
2018,06,20,14,53,27.90
2018,06,20,14,54,27.90
2018,06,20,14,55,27.90
2018,06,20,14,56,27.90
2018,06,20,14,57,27.90
2018,06,20,14,58,27.90
2018,06,20,14,59,27.90
2018,06,20,15,00,28.00
2018,06,20,15,01,28.10
2018,06,20,15,02,28.20
2018,06,20,15,03,28.30
2018,06,20,15,04,28.30
2018,06,20,15,05,28.40
2018,06,20,15,06,28.40
2018,06,20,15,07,28.40
2018,06,20,15,08,28.40
2018,06,20,15,09,28.40
2018,06,20,15,10,28.50
2018,06,20,15,11,28.50
2018,06,20,15,12,28.60
2018,06,20,15,13,28.70
2018,06,20,15,14,28.80
2018,06,20,15,15,28.80
2018,06,20,15,16,28.90
2018,06,20,15,17,28.90
2018,06,20,15,18,28.90
2018,06,20,15,19,28.90
2018,06,20,15,20,28.90
2018,06,20,15,21,28.90
2018,06,20,15,22,28.90
2018,06,20,15,23,29.00
2018,06,20,15,24,29.00
2018,06,20,15,25,29.10
2018,06,20,15,26,29.20
2018,06,20,15,27,29.20
2018,06,20,15,28,29.30
2018,06,20,15,29,29.30
2018,06,20,15,30,29.20
2018,06,20,15,31,29.20
2018,06,20,15,32,29.30
2018,06,20,15,33,29.20
2018,06,20,15,34,29.20
2018,06,20,15,35,29.10
2018,06,20,15,36,29.00
2018,06,20,15,37,28.80
2018,06,20,15,38,28.70
2018,06,20,15,39,28.60
2018,06,20,15,40,28.60
2018,06,20,15,41,28.60
2018,06,20,15,42,28.70
2018,06,20,15,43,28.70
2018,06,20,15,44,28.80
2018,06,20,15,45,28.80
2018,06,20,15,46,28.90
2018,06,20,15,47,28.90
2018,06,20,15,48,28.90
2018,06,20,15,49,28.90
2018,06,20,15,50,28.80
2018,06,20,15,51,28.70
2018,06,20,15,52,28.60
2018,06,20,15,53,28.50
2018,06,20,15,54,28.40
2018,06,20,15,55,28.40
2018,06,20,15,56,28.40
2018,06,20,15,57,28.40
2018,06,20,15,58,28.40
2018,06,20,15,59,28.40
2018,06,20,16,00,28.40
2018,06,20,16,01,28.40
2018,06,20,16,02,28.40
2018,06,20,16,03,28.40
2018,06,20,16,04,28.40
2018,06,20,16,05,28.30
2018,06,20,16,06,28.20
2018,06,20,16,07,28.10
2018,06,20,16,08,28.00
2018,06,20,16,09,27.90
2018,06,20,16,10,27.80
2018,06,20,16,11,27.70
2018,06,20,16,12,27.60
2018,06,20,16,13,27.50
2018,06,20,16,14,27.40
2018,06,20,16,15,27.20
2018,06,20,16,16,27.10
2018,06,20,16,17,27.00
2018,06,20,16,18,26.90
2018,06,20,16,19,26.80
2018,06,20,16,20,26.80
2018,06,20,16,21,26.80
2018,06,20,16,22,26.70
2018,06,20,16,23,26.70
2018,06,20,16,24,26.60
2018,06,20,16,25,26.50
2018,06,20,16,26,26.40
2018,06,20,16,27,26.40
2018,06,20,16,28,26.40
2018,06,20,16,29,26.40
2018,06,20,16,30,26.40
2018,06,20,16,31,26.40
2018,06,20,16,32,26.40
2018,06,20,16,33,26.50
2018,06,20,16,34,26.50
2018,06,20,16,35,26.50
2018,06,20,16,36,26.60
2018,06,20,16,37,26.60
2018,06,20,16,38,26.60
2018,06,20,16,39,26.70
2018,06,20,16,40,26.70
2018,06,20,16,41,26.80
2018,06,20,16,42,26.90
2018,06,20,16,43,27.00
2018,06,20,16,44,27.00
2018,06,20,16,45,27.10
2018,06,20,16,46,27.10
2018,06,20,16,47,27.10
2018,06,20,16,48,27.10
2018,06,20,16,49,27.10
2018,06,20,16,50,27.10
2018,06,20,16,51,27.10
2018,06,20,16,52,27.10
2018,06,20,16,53,27.10
2018,06,20,16,54,27.10
2018,06,20,16,55,27.10
2018,06,20,17,07,27.00
2018,06,20,17,08,27.00
2018,06,20,17,09,27.00
2018,06,20,17,10,27.00
2018,06,20,17,11,26.90
2018,06,20,17,12,26.90
2018,06,20,17,13,26.90
2018,06,20,17,14,26.90
2018,06,20,17,15,26.90
2018,06,20,17,16,26.90
2018,06,20,17,17,26.90
2018,06,20,17,18,26.90
2018,06,20,17,19,26.90
2018,06,20,17,26,27.00
2018,06,20,17,27,27.10
2018,06,20,17,28,27.10
2018,06,20,17,29,27.00
2018,06,20,17,30,27.00
2018,06,20,17,31,27.00
2018,06,20,17,32,27.10
2018,06,20,17,33,27.10
2018,06,20,17,34,27.10
2018,06,20,17,35,27.20
2018,06,20,17,36,27.20